Weather History for Troy, AL

Change the Weather History Date:

Wednesday, August 28, 2013

  Actual Average Record
Temperature  
Mean Temperature 77 °F 80 °F  
Max Temperature 91 °F 91 °F 97 °F (2011)
Min Temperature 63 °F 69 °F 60 °F (2011)
Cooling Degree Days 12 15  
Month to date cooling degree days 412 435  
Year to date cooling degree days 1597 1595  
Since 1 June cooling degree days 1305 1308  
Growing Degree Days 27 (Base 50)    
Moisture  
Dew Point 65 °F    
Average Humidity 68    
Maximum Humidity 93    
Minimum Humidity 43    
Precipitation  
Precipitation 0.00 in 0.11 in 0.42 in (2010)
Month to date precipitation 3.13 4.32  
Year to date precipitation 45.61 37.65  
Sea Level Pressure  
Sea Level Pressure 30.05 in    
Wind  
Wind Speed 1 mph (WNW)    
Max Wind Speed 8 mph    
Max Gust Speed 16 mph    
Visibility 8 miles    
Events      
T = Trace of Precipitation, MM = Missing Value Source: NWS Daily Summary

Daily Weather History Graph

Daily Weather History Graph

Search for Another Location

Airport:

Trip Planner

Search our weather history database for the weather conditions in past years. The results will help you decide how hot, cold, wet, or windy it might be!

Date:

Astronomy

Aug. 28, 2013 Rise Set
Actual Time 6:17 AM CDT 7:12 PM CDT
Civil Twilight 5:52 AM CDT 7:37 PM CDT
Nautical Twilight 5:22 AM CDT 8:07 PM CDT
Astronomical Twilight 4:52 AM CDT 8:37 PM CDT
Moon No Moon Rise 1:39 PM CDT (8/28)
Length of Visible Light 13h 45m
Length of Day
12h 55m
Waning Gibbous, 47% of the Moon is Illuminated
Aug 28
Waning Gibbous
Sep 5
New
Sep 12
First Quarter
Sep 19
Full
Sep 26
Last Quarter

Hourly Weather History & Observations

Time (CDT) Temp. Heat Index Dew Point Humidity Pressure Visibility Wind Dir Wind Speed Gust Speed Precip Events Conditions
12:53 AM 68.0 °F - 64.9 °F 90% 30.05 in 7.0 mi Calm Calm - N/A   Clear
1:53 AM 66.0 °F - 64.0 °F 93% 30.04 in 7.0 mi Calm Calm - N/A   Clear
2:53 AM 66.0 °F - 63.0 °F 90% 30.04 in 6.0 mi Calm Calm - N/A   Clear
3:53 AM 66.0 °F - 63.0 °F 90% 30.03 in 7.0 mi Calm Calm - N/A   Clear
4:53 AM 64.9 °F - 62.1 °F 90% 30.03 in 5.0 mi Calm Calm - N/A   Clear
5:53 AM 64.0 °F - 62.1 °F 93% 30.05 in 6.0 mi Calm Calm - N/A   Clear
6:53 AM 64.9 °F - 62.1 °F 90% 30.07 in 8.0 mi Calm Calm - N/A   Clear
7:53 AM 71.1 °F - 66.0 °F 84% 30.08 in 9.0 mi Calm Calm - N/A   Clear
8:53 AM 78.1 °F - 68.0 °F 71% 30.09 in 10.0 mi Calm Calm - N/A   Clear
9:53 AM 84.0 °F 85.8 °F 64.9 °F 53% 30.09 in 10.0 mi North 3.5 mph - N/A   Clear
10:53 AM 86.0 °F 86.8 °F 63.0 °F 46% 30.09 in 10.0 mi Calm Calm - N/A   Clear
11:53 AM 87.1 °F 87.8 °F 63.0 °F 44% 30.08 in 10.0 mi SW 3.5 mph - N/A   Clear
12:53 PM 87.1 °F 88.9 °F 64.9 °F 48% 30.08 in 10.0 mi Calm Calm - N/A   Scattered Clouds
1:53 PM 88.0 °F 89.3 °F 64.0 °F 45% 30.06 in 10.0 mi WNW 5.8 mph - N/A   Clear
2:53 PM 88.0 °F 88.7 °F 63.0 °F 43% 30.04 in 10.0 mi Calm Calm - N/A   Partly Cloudy
3:53 PM 90.0 °F 91.3 °F 64.0 °F 42% 30.03 in 10.0 mi North 4.6 mph - N/A   Partly Cloudy
4:53 PM 89.1 °F 90.3 °F 64.0 °F 43% 30.02 in 10.0 mi WNW 5.8 mph - N/A   Clear
5:53 PM 87.1 °F 88.3 °F 64.0 °F 46% 30.02 in 10.0 mi WNW 4.6 mph - N/A   Clear
6:53 PM 82.0 °F 85.5 °F 69.1 °F 65% 30.02 in 10.0 mi NW 3.5 mph - N/A   Clear
7:44 PM 75.2 °F - 69.8 °F 83% 30.03 in 9.0 mi Calm Calm - N/A   Partly Cloudy
7:53 PM 75.9 °F - 70.0 °F 82% 30.02 in 9.0 mi Calm Calm - N/A   Partly Cloudy
8:53 PM 71.1 °F - 68.0 °F 90% 30.03 in 5.0 mi South 3.5 mph - N/A   Clear
9:53 PM 72.0 °F - 69.1 °F 91% 30.04 in 5.0 mi Calm Calm - N/A   Clear
10:53 PM 71.1 °F - 68.0 °F 90% 30.04 in 6.0 mi Calm Calm - N/A   Clear
11:53 PM 70.0 °F - 66.9 °F 90% 30.04 in 5.0 mi Calm Calm - N/A   Clear